Los Alamos, NM

7:58 PM MDT on July 23, 2017 (GMT -0600)
Los Alamos

Weather History for KLAM - March, 2013

Change the Weather History Date:

Tuesday, March 26, 2013

  Actual Average Record
Temperature  
Mean Temperature 42 °F -  
Max Temperature 55 °F 54 °F 71 °F (1971)
Min Temperature 28 °F 30 °F 6 °F (1955)
Degree Days  
Heating Degree Days 24    
Moisture  
Dew Point 7 °F    
Average Humidity 25    
Maximum Humidity 40    
Minimum Humidity 14    
Precipitation  
Precipitation 0.00 in - - ()
Sea Level Pressure  
Sea Level Pressure 30.13 in    
Wind  
Wind Speed 10 mph (South)    
Max Wind Speed 21 mph    
Max Gust Speed 29 mph    
Visibility 10 miles    
Events      
Averages and records for this station are not official NWS values.
T = Trace of Precipitation, MM = Missing Value Source: NWS Daily Summary

Daily Weather History Graph

Daily Weather History Graph

Search for Another Location

Airport or City:

Trip Planner

Search our weather history database for the weather conditions in past years. The results will help you decide how hot, cold, wet, or windy it might be!

Date:

Astronomy

Mar. 26, 2013 Rise Set
Actual Time 6:59 AM MDT 7:22 PM MDT
Civil Twilight 6:34 AM MDT 7:47 PM MDT
Nautical Twilight 6:03 AM MDT 8:17 PM MDT
Astronomical Twilight 5:33 AM MDT 8:48 PM MDT
Moon 7:01 PM MDT (3/26) 6:17 AM MDT (3/26)
Length of Visible Light 13h 13m
Length of Day
12h 22m
Waxing Gibbous, 99% of the Moon is Illuminated
Mar 26
Waxing Gibbous
Mar 27
Full
Apr 2
Last Quarter
Apr 10
New
Apr 18
First Quarter

Hourly Weather History & Observations

Time (MDT) Temp. Windchill Dew Point Humidity Pressure Visibility Wind Dir Wind Speed Gust Speed Precip Events Conditions
12:15 AM 33.8 °F 24.8 °F 5.0 °F 30% 30.22 in 10.0 mi South 12.7 mph - N/A   Overcast
12:35 AM 33.3 °F 24.6 °F 5.2 °F 31% 30.22 in 10.0 mi South 11.5 mph - N/A   Overcast
12:55 AM 32.9 °F 25.3 °F 5.4 °F 31% 30.22 in 10.0 mi South 9.2 mph - N/A   Overcast
1:15 AM 32.5 °F 25.5 °F 5.4 °F 32% 30.21 in 10.0 mi South 8.1 mph 16.1 mph N/A   Overcast
1:35 AM 32.2 °F 25.0 °F 5.4 °F 32% 30.21 in 10.0 mi South 8.1 mph - N/A   Overcast
1:55 AM 32.0 °F 24.8 °F 5.4 °F 33% 30.21 in 10.0 mi South 8.1 mph - N/A   Overcast
2:15 AM 32.0 °F 23.6 °F 5.5 °F 33% 30.21 in 10.0 mi South 10.4 mph 16.1 mph N/A   Overcast
2:35 AM 32.0 °F 23.0 °F 5.5 °F 33% 30.19 in 10.0 mi South 11.5 mph - N/A   Overcast
2:55 AM 31.6 °F 24.4 °F 5.7 °F 34% 30.19 in 10.0 mi South 8.1 mph - N/A   Overcast
3:15 AM 31.1 °F 23.7 °F 5.7 °F 34% 30.19 in 10.0 mi South 8.1 mph - N/A   Overcast
3:35 AM 30.7 °F 22.6 °F 5.9 °F 35% 30.18 in 10.0 mi South 9.2 mph - N/A   Mostly Cloudy
3:55 AM 30.2 °F 22.6 °F 5.9 °F 36% 30.18 in 10.0 mi South 8.1 mph - N/A   Scattered Clouds
4:15 AM 29.8 °F 24.9 °F 5.9 °F 36% 30.17 in 10.0 mi South 4.6 mph - N/A   Clear
4:35 AM 29.3 °F 22.3 °F 5.9 °F 37% 30.17 in 10.0 mi SSW 6.9 mph - N/A   Clear
4:55 AM 29.7 °F 20.7 °F 6.3 °F 37% 30.17 in 10.0 mi South 10.4 mph - N/A   Clear
5:15 AM 29.7 °F 20.7 °F 6.3 °F 37% 30.17 in 10.0 mi South 10.4 mph - N/A   Clear
5:35 AM 29.1 °F 21.3 °F 6.4 °F 38% 30.17 in 10.0 mi South 8.1 mph - N/A   Clear
5:55 AM 28.9 °F 23.9 °F 6.4 °F 39% 30.18 in 10.0 mi SSW 4.6 mph - N/A   Clear
6:15 AM 28.4 °F - 6.4 °F 39% 30.18 in 10.0 mi Calm Calm - N/A   Clear
6:35 AM 28.2 °F 22.0 °F 6.4 °F 40% 30.18 in 10.0 mi SSW 5.8 mph - N/A   Clear
6:55 AM 28.4 °F 23.3 °F 6.4 °F 39% 30.18 in 10.0 mi South 4.6 mph - N/A   Clear
7:15 AM 28.9 °F - 6.4 °F 39% 30.19 in 10.0 mi Calm Calm - N/A   Clear
7:35 AM 28.9 °F 22.8 °F 6.8 °F 39% 30.19 in 10.0 mi SSW 5.8 mph - N/A   Clear
7:55 AM 30.2 °F 25.4 °F 6.8 °F 37% 30.19 in 10.0 mi SSW 4.6 mph - N/A   Clear
8:15 AM 31.1 °F 26.4 °F 7.0 °F 36% 30.20 in 10.0 mi South 4.6 mph - N/A   Clear
8:35 AM 32.0 °F 27.5 °F 7.0 °F 35% 30.19 in 10.0 mi South 4.6 mph - N/A   Clear
8:55 AM 33.8 °F 30.8 °F 7.2 °F 33% 30.20 in 10.0 mi SSE 3.5 mph - N/A   Clear
9:15 AM 34.9 °F - 7.2 °F 31% 30.20 in 10.0 mi Calm Calm - N/A   Clear
9:35 AM 37.2 °F 34.7 °F 7.5 °F 29% 30.20 in 10.0 mi East 3.5 mph - N/A   Clear
9:55 AM 38.8 °F 35.4 °F 7.7 °F 28% 30.20 in 10.0 mi East 4.6 mph - N/A   Clear
10:15 AM 39.9 °F 35.8 °F 7.5 °F 26% 30.19 in 10.0 mi ESE 5.8 mph - N/A   Clear
10:35 AM 40.6 °F 38.6 °F 7.3 °F 25% 30.19 in 10.0 mi SE 3.5 mph - N/A   Clear
10:55 AM 42.6 °F 37.8 °F 7.2 °F 23% 30.18 in 10.0 mi South 8.1 mph - N/A   Clear
11:15 AM 43.9 °F 38.8 °F 7.0 °F 22% 30.18 in 10.0 mi South 9.2 mph - N/A   Clear
11:35 AM 45.0 °F 38.5 °F 6.8 °F 21% 30.17 in - South 13.8 mph - N/A   Clear
11:55 AM 46.9 °F - 6.4 °F 19% 30.17 in 10.0 mi South 11.5 mph 17.3 mph N/A   Clear
12:15 PM 47.3 °F - 5.7 °F 18% 30.15 in 10.0 mi South 13.8 mph 20.7 mph N/A   Clear
12:35 PM 48.2 °F - 5.2 °F 17% 30.15 in 10.0 mi South 17.3 mph 25.3 mph N/A   Clear
12:55 PM 48.7 °F - 4.8 °F 17% 30.13 in 10.0 mi South 19.6 mph 28.8 mph N/A   Clear
1:15 PM 49.8 °F - 5.0 °F 16% 30.13 in 10.0 mi SSE 20.7 mph 27.6 mph N/A   Clear
1:35 PM 48.6 °F - 5.9 °F 18% 30.13 in 10.0 mi SSE 18.4 mph 23.0 mph N/A   Scattered Clouds
1:55 PM 50.9 °F - 5.9 °F 16% 30.11 in 10.0 mi SSE 19.6 mph 27.6 mph N/A   Clear
2:15 PM 52.3 °F - 5.9 °F 15% 30.11 in 10.0 mi South 19.6 mph 26.5 mph N/A   Clear
2:35 PM 53.1 °F - 6.6 °F 15% 30.09 in 10.0 mi South 19.6 mph 24.2 mph N/A   Clear
2:55 PM 52.9 °F - 6.6 °F 16% 30.09 in 10.0 mi South 17.3 mph 28.8 mph N/A   Clear
3:15 PM 52.3 °F - 6.3 °F 16% 30.09 in 10.0 mi SSE 17.3 mph 26.5 mph N/A   Clear
3:35 PM 53.6 °F - 6.8 °F 15% 30.08 in 10.0 mi South 15.0 mph 20.7 mph N/A   Clear
3:55 PM 55.2 °F - 6.8 °F 14% 30.07 in 10.0 mi SSE 17.3 mph 21.9 mph N/A   Clear
4:15 PM 54.7 °F - 6.8 °F 15% 30.07 in 10.0 mi South 15.0 mph 23.0 mph N/A   Clear
4:35 PM 55.0 °F - 6.6 °F 14% 30.05 in 10.0 mi SSE 17.3 mph - N/A   Clear
4:55 PM 55.6 °F - 6.6 °F 14% 30.06 in 10.0 mi South 10.4 mph 23.0 mph N/A   Clear
5:15 PM 54.5 °F - 6.4 °F 14% 30.05 in 10.0 mi South 18.4 mph 21.9 mph N/A   Scattered Clouds
5:35 PM 55.2 °F - 6.6 °F 14% 30.05 in 10.0 mi SSW 12.7 mph 17.3 mph N/A   Clear
5:55 PM 55.4 °F - 6.3 °F 14% 30.05 in 10.0 mi South 10.4 mph 19.6 mph N/A   Clear
6:15 PM 54.5 °F - 6.4 °F 14% 30.06 in 10.0 mi SSW 9.2 mph 17.3 mph N/A   Clear
6:35 PM 54.5 °F - 5.9 °F 14% 30.06 in 10.0 mi SSW 9.2 mph 17.3 mph N/A   Clear
6:55 PM 54.0 °F - 5.9 °F 14% 30.06 in 10.0 mi South 3.5 mph - N/A   Clear
7:15 PM 53.2 °F - 5.9 °F 15% 30.05 in 10.0 mi South 8.1 mph - N/A   Clear
7:35 PM 52.7 °F - 5.7 °F 15% 30.05 in 10.0 mi South 9.2 mph - N/A   Clear
7:55 PM 52.0 °F - 5.9 °F 16% 30.05 in 10.0 mi South 8.1 mph - N/A   Clear
8:15 PM 51.6 °F - 5.9 °F 16% 30.06 in 10.0 mi SW 6.9 mph - N/A   Clear
8:35 PM 51.3 °F - 6.4 °F 16% 30.06 in 10.0 mi SW 8.1 mph - N/A   Clear
8:55 PM 50.5 °F - 6.8 °F 17% 30.06 in 10.0 mi SSW 10.4 mph - N/A   Clear
9:15 PM 50.9 °F - 7.5 °F 17% 30.07 in 10.0 mi SSW 8.1 mph - N/A   Clear
9:35 PM 50.4 °F - 7.7 °F 18% 30.07 in 10.0 mi SSW 11.5 mph - N/A   Clear
9:55 PM 50.0 °F - 8.1 °F 18% 30.07 in 10.0 mi South 9.2 mph 17.3 mph N/A   Clear
10:15 PM 49.8 °F - 8.4 °F 19% 30.07 in 10.0 mi South 8.1 mph - N/A   Clear
10:35 PM 49.1 °F - 8.6 °F 19% 30.07 in 10.0 mi South 10.4 mph - N/A   Clear
10:55 PM 49.1 °F - 8.6 °F 19% 30.07 in 10.0 mi South 9.2 mph - N/A   Clear
11:15 PM 48.2 °F - 8.6 °F 20% 30.07 in 10.0 mi South 5.8 mph - N/A   Clear
11:35 PM 47.3 °F - 8.6 °F 21% 30.08 in 10.0 mi South 5.8 mph - N/A   Clear
11:55 PM 45.9 °F 42.9 °F 8.8 °F 22% 30.07 in 10.0 mi South 5.8 mph - N/A   Clear